Voltar ao catálogo

STARLINK-35481

AtivoComunicaçõesVLEO
NORAD 66247·PAYLOAD·🇺🇸 United States

Lançado Oct 29, 2025 de Cape Canaveral Space Force Station

Loading…

Próximas Passagens (próximas 24 horas)

TLE

AtualizadoSource: CelesTrak SupGP

Época: Sep 15, 2026, 03:58 UTC

1 66247C 25245P   26258.16576389  .00019400  00000+0  62391-3 0  2586
2 66247  53.1575 122.5166 0001249  85.1836 295.8605 15.31688945    19

Acompanhe STARLINK-35481 em tempo real com AllMySat

Download on the App Store